This demonstration page uses our WeatherBlox Daily Observations layout. Learn more.

Left ArrowRight Arrow

40.92945, -100.16068

Hourly Observations for September 25, 2019

Temp ( °F °C ) Dew Point ( °F °C ) Humidity (%) Winds ( mph kmh ) Pressure ( in mb ) Visibility ( mi km ) Precip ( " mm )
12:15 am 00:15 Clear 57 14 52 11.1 83 83 SSE 5 7 29.79 1009 10 16 0.00 0.00
12:35 am 00:35 Clear 58 14.3 52 11.1 81 81 Calm 29.79 1009 10 16 0.00 0.00
12:55 am 00:55 Clear 56 13.4 52 11 86 86 Calm 29.80 1009 10 16 0.00 0.00
1:15 am 01:15 Clear 54 12.3 52 10.9 91 91 Calm 29.81 1009 10 16 0.00 0.00
1:35 am 01:35 Clear 53 11.8 52 10.9 94 94 NW 3 6 29.82 1010 10 16 0.00 0.00
1:55 am 01:55 Clear 53 11.5 51 10.7 95 95 N 3 6 29.83 1010 10 16 0.00 0.00
2:15 am 02:15 Clear with Mist and Fog 52 11.3 51 10.5 95 95 N 7 11 29.84 1010 5 8 0.00 0.00
2:35 am 02:35 Clear 52 11.3 51 10.5 95 95 NNW 5 7 29.85 1011 10 16 0.00 0.00
2:55 am 02:55 Clear 53 11.5 51 10.5 94 94 N 5 7 29.86 1011 10 16 0.00 0.00
3:15 am 03:15 Clear 52 11 50 10.2 95 95 Calm 29.87 1012 10 16 0.00 0.00
3:35 am 03:35 Clear 51 10.8 50 9.9 94 94 Calm 29.88 1012 10 16 0.00 0.00
3:55 am 03:55 Clear 50 10 49 9.6 97 97 NNW 3 6 29.89 1012 10 16 0.00 0.00
4:15 am 04:15 Clear 50 10.1 49 9.5 96 96 NW 5 7 29.89 1012 10 16 0.00 0.00
4:35 am 04:35 Clear 51 10.3 49 9.7 96 96 WSW 3 6 29.90 1012 10 16 0.00 0.00
4:55 am 04:55 Clear 50 10.1 49 9.7 97 97 WSW 3 6 29.91 1013 10 16 0.00 0.00
5:15 am 05:15 Clear 50 10 49 9.6 97 97 NW 5 7 29.91 1013 10 16 0.00 0.00
5:35 am 05:35 Clear 49 9.6 49 9.3 98 98 NW 7 11 29.92 1013 10 16 0.00 0.00
5:55 am 05:55 Clear 51 10.7 50 10 95 95 NNE 7 11 29.92 1013 10 16 0.00 0.00
6:15 am 06:15 Clear 54 12.1 51 10.6 91 91 NNE 6 9 29.91 1013 10 16 0.00 0.00
6:35 am 06:35 Clear 53 11.7 51 10.5 92 92 N 3 6 29.93 1013 10 16 0.00 0.00
6:55 am 06:55 Clear 53 11.7 51 10.5 92 92 NNE 5 7 29.93 1013 10 16 0.00 0.00
7:15 am 07:15 Clear 53 11.6 50 10.1 91 91 N 5 7 29.94 1014 10 16 0.00 0.00
7:35 am 07:35 Sunny 51 10.8 49 9.7 93 93 N 3 6 29.94 1014 10 16 0.00 0.00
7:55 am 07:55 Sunny 50 10.1 49 9.5 96 96 Calm 29.96 1015 10 16 0.00 0.00
8:15 am 08:15 Sunny 51 10.6 50 9.9 95 95 Calm 29.97 1015 10 16 0.00 0.00
8:35 am 08:35 Sunny 54 12.1 51 10.5 90 90 Calm 29.95 1014 10 16 0.00 0.00
8:55 am 08:55 Sunny 56 13.5 51 10.6 83 83 Calm 29.94 1014 10 16 0.00 0.00
9:15 am 09:15 Sunny 58 14.6 51 10.5 77 77 Calm 29.94 1014 10 16 0.00 0.00
9:35 am 09:35 Sunny 60 15.7 51 10.8 73 73 Calm 29.93 1014 10 16 0.00 0.00
9:55 am 09:55 Partly Cloudy 63 17.2 51 10.8 66 66 Calm 29.93 1013 10 16 0.00 0.00
10:15 am 10:15 Sunny 65 18.2 51 10.6 61 61 NE 3 6 29.92 1013 10 16 0.00 0.00
10:35 am 10:35 Sunny 68 19.8 50 9.8 53 53 ENE 7 11 29.90 1013 10 16 0.00 0.00
10:55 am 10:55 Sunny 70 21 45 7 40 40 ENE 10 17 29.89 1012 10 16 0.00 0.00
11:15 am 11:15 Sunny 71 21.7 44 6.9 38 38 NE 7 11 29.90 1012 10 16 0.00 0.00
11:35 am 11:35 Sunny 72 22.3 39 3.9 30 30 NE 12 19 29.90 1013 10 16 0.00 0.00
11:55 am 11:55 Sunny 73 22.6 41 5.1 32 32 ENE 12 19 29.89 1012 10 16 0.00 0.00
12:15 pm 12:15 Sunny 74 23.4 43 6 33 33 NE 10 17 29.88 1012 10 16 0.00 0.00
12:35 pm 12:35 Sunny 73 22.7 42 5.6 33 33 ENE 8 13 29.88 1012 10 16 0.00 0.00
12:55 pm 12:55 Sunny 73 23 40 4.3 30 30 NE 6 9 29.88 1012 10 16 0.00 0.00
1:15 pm 13:15 Sunny 74 23.2 41 4.8 30 30 NE 9 15 29.87 1012 10 16 0.00 0.00
1:35 pm 13:35 Sunny 74 23.6 42 5.6 31 31 ENE 7 11 29.87 1012 10 16 0.00 0.00
1:55 pm 13:55 Hazy 74 23.5 42 5.6 32 32 NNE 8 13 29.86 1011 4 6 0.00 0.00
2:15 pm 14:15 Sunny 74 23.5 42 5.4 31 31 NE 7 11 29.86 1011 10 16 0.00 0.00
2:35 pm 14:35 Sunny 75 23.8 42 5.3 30 30 Calm 29.86 1011 10 16 0.00 0.00
2:55 pm 14:55 Sunny 75 24.1 43 6 31 31 NNE 13 20 29.86 1011 10 16 0.00 0.00
3:15 pm 15:15 Partly Cloudy 75 24.1 42 5.6 30 30 N 6 9 29.86 1011 10 16 0.00 0.00
3:35 pm 15:35 Partly Cloudy 76 24.3 43 6.1 31 31 ENE 10 17 29.85 1011 10 16 0.00 0.00
3:55 pm 15:55 Partly Cloudy 74 23.4 43 5.9 32 32 NNE 6 9 29.85 1011 10 16 0.00 0.00
4:15 pm 16:15 Sunny 75 23.7 45 7.3 35 35 NNE 14 22 29.84 1011 10 16 0.00 0.00
4:35 pm 16:35 Sunny 73 22.8 46 7.5 37 37 NE 12 19 29.85 1011 10 16 0.00 0.00
4:50 pm 16:50 Sunny 73 23 46 7.6 37 37 NE 13 20 29.86 1011 10 16 0.00 0.00
5:15 pm 17:15 Sunny 73 22.5 45 7.2 37 37 NE 14 22 29.87 1012 10 16 0.00 0.00
5:35 pm 17:35 Sunny 71 21.4 46 7.7 41 41 NE 17 28 29.89 1012 10 16 0.00 0.00
5:55 pm 17:55 Sunny 70 20.9 44 6.9 40 40 NE 15 24 29.90 1013 10 16 0.00 0.00
6:15 pm 18:15 Sunny 69 20.3 44 6.5 41 41 NE 16 26 29.91 1013 10 16 0.00 0.00
6:35 pm 18:35 Sunny 66 19.1 44 6.7 45 45 NE 14 22 29.94 1014 10 16 0.00 0.00
6:55 pm 18:55 Sunny 65 18.3 44 6.8 47 47 NE 12 19 29.96 1014 10 16 0.00 0.00
7:15 pm 19:15 Sunny 63 17.2 44 6.5 50 50 NE 8 13 29.97 1015 10 16 0.00 0.00
7:35 pm 19:35 Clear 61 16.2 44 6.6 53 53 NE 9 15 29.99 1015 10 16 0.00 0.00
7:55 pm 19:55 Clear 59 15.2 43 6.3 56 56 NE 7 11 29.99 1016 10 16 0.00 0.00
8:15 pm 20:15 Clear 58 14.2 44 6.5 60 60 NE 6 9 30.01 1016 10 16 0.00 0.00
8:35 pm 20:35 Mostly Cloudy 58 14.2 44 6.5 60 60 ENE 7 11 30.02 1017 10 16 0.00 0.00
8:55 pm 20:55 Mostly Cloudy 58 14.6 43 6.1 57 57 ENE 7 11 30.04 1017 10 16 0.00 0.00
9:15 pm 21:15 Mostly Cloudy 57 14 43 6 59 59 NE 6 9 30.05 1018 10 16 0.00 0.00
9:35 pm 21:35 Partly Cloudy 56 13.2 43 6 62 62 NE 6 9 30.06 1018 10 16 0.00 0.00
9:55 pm 21:55 Partly Cloudy 55 12.6 43 6.1 65 65 ENE 5 7 30.09 1019 10 16 0.00 0.00
10:15 pm 22:15 Partly Cloudy 53 11.6 44 6.6 72 72 NE 3 6 30.10 1019 10 16 0.00 0.00
10:35 pm 22:35 Mostly Cloudy 52 10.9 44 6.7 76 76 Calm 30.09 1019 10 16 0.00 0.00
10:55 pm 22:55 Partly Cloudy 52 11.3 44 6.5 73 73 NE 5 7 30.10 1019 10 16 0.00 0.00
11:15 pm 23:15 Clear 50 10.2 44 6.7 79 79 Calm 30.10 1019 10 16 0.00 0.00
11:35 pm 23:35 Clear 50 10 44 6.7 80 80 Calm 30.11 1020 10 16 0.00 0.00
11:55 pm 23:55 Clear 50 9.8 44 6.9 82 82 Calm 30.10 1019 10 16 0.00 0.00

Powered by AerisWeather